Location: Observatory
(52.1446°N, 0.4624°W)
Time: 05:20:57
(UTC+01:00)

ISS - Pass Details

Date: 29 July 2021
Orbit: 419 x 421 km, 51.6° (Epoch: 03 August)

Event Time Altitude Azimuth Distance (km) Brightness Sun altitude
Rises 22:08:42 0° 281° (W) 2,374 1.0 -9.3°
Reaches altitude 10° 22:11:08 10° 264° (W) 1,506 -0.4 -9.5°
Maximum altitude 22:13:42 20° 215° (SW) 1,030 -1.9 -9.8°
Enters shadow 22:15:56 12° 169° (S) 1,403 -1.6 -10.0°
